Location: Zengebe
(1.4833°N, 32.5167°E)
Time: 23:05:03
(UTC+00:00)

ALOS - Pass Details

Date: 07 June 2020
Orbit: 683 x 686 km, 97.8° (Epoch: 10 July)

Event Time Altitude Azimuth Distance (km) Brightness Sun altitude
Rises 02:45:55 0° 359° (N) 3,028 5.9 -13.9°
Reaches altitude 10° 02:48:15 10° 352° (N) 2,116 5.0 -13.3°
Maximum altitude 02:52:35 41° 282° (WNW) 983 2.7 -12.4°
Drops below altitude 10° 02:56:58 10° 212° (SSW) 2,124 4.3 -11.4°
Enters shadow 02:57:06 - 211° (SSW) 2,176 4.4 -11.3°
